This is the latest recevied weather packets stored in our database for station/object KF0EZB. If no packets are shown the sender has not sent any weather packets the latest 10 day(s).
| Time | Temp. | Humidity | Pressure | Rain* | Wind** | Luminosity | Snow |
|---|---|---|---|---|---|---|---|
| 1777990035 | 10° C | 57% | 1012.5 hPa | 0 mm | - | 42 W/m² | - |
| 1777989732 | 10° C | 57% | 1012.4 hPa | 0 mm | - | 37 W/m² | - |
| 1777989428 | 10° C | 57% | 1012 hPa | 0 mm | - | 33 W/m² | - |
| 1777989125 | 10° C | 57% | 1011.9 hPa | 0 mm | - | 39 W/m² | - |
| 1777988820 | 10° C | 57% | 1011.9 hPa | 0 mm | - | 42 W/m² | - |
| 1777988518 | 10° C | 57% | 1011.9 hPa | 0 mm | - | 53 W/m² | - |
| 1777988215 | 10° C | 57% | 1011.4 hPa | 0 mm | - | 31 W/m² | - |
| 1777987911 | 10° C | 58% | 1011.4 hPa | 0 mm | - | 28 W/m² | - |
| 1777987607 | 10° C | 58% | 1011.3 hPa | 0 mm | - | 38 W/m² | - |
| 1777987305 | 10° C | 58% | 1010.8 hPa | 0 mm | - | 33 W/m² | - |
| 1777987002 | 10° C | 58% | 1011.1 hPa | 0 mm | - | 30 W/m² | - |
| 1777986700 | 10° C | 58% | 1010.7 hPa | 0 mm | - | 41 W/m² | - |
| 1777986397 | 10° C | 58% | 1010.8 hPa | 0 mm | - | 28 W/m² | - |
| 1777986096 | 10° C | 58% | 1010.5 hPa | 0 mm | - | 29 W/m² | - |
| 1777985791 | 10° C | 58% | 1010.5 hPa | 0 mm | - | 32 W/m² | - |
| 1777985489 | 10° C | 58% | 1010.6 hPa | 0 mm | - | 30 W/m² | - |
| 1777985185 | 10° C | 58% | 1010.3 hPa | 0 mm | - | 25 W/m² | - |
| 1777984882 | 10° C | 58% | 1010.2 hPa | 0 mm | - | 38 W/m² | - |
| 1777984578 | 10° C | 58% | 1010 hPa | 0 mm | - | 40 W/m² | - |
| 1777984275 | 10° C | 58% | 1009.8 hPa | 0 mm | - | 33 W/m² | - |
| 1777983971 | 10° C | 58% | 1009.8 hPa | 0 mm | - | 17 W/m² | - |
| 1777983669 | 10° C | 58% | 1009.8 hPa | 0 mm | - | 12 W/m² | - |
| 1777983365 | 10° C | 58% | 1009.6 hPa | 0 mm | - | 11 W/m² | - |
| 1777983062 | 10° C | 58% | 1009.3 hPa | 0 mm | - | 14 W/m² | - |
| 1777982758 | 10° C | 58% | 1009.7 hPa | 0 mm | - | 6 W/m² | - |
* Rain latest hour (hover to see other rain measurements)
** Current wind speed in m/s (hover to see current wind gust speed)